Flag for Canada Weather past 2 weeks in Clarington, Ontario, Canada

Now
68 °F

Partly sunny.


Feels Like: 68 °F
Forecast: N/A
Wind: 18 mph from Northwest

Location: Peterborough Airport

Current Time: Aug 27, 2014 at 5:28:46 PM

Latest Report: Aug 27, 2014 at 5:00 PM


Visibility: 9 mi

Pressure: 30.02 "Hg

Humidity: 64%

Dew point: 55 °F

Location of ClaringtonLocation

Historic Weather in Clarington — Graph

°F

Clarington temperature yesterday

Maximum temperature yesterday: 81 °F (at 2:00 PM)
Minimum temperature yesterday: 54 °F (at 4:03 AM)
Average temperature yesterday: 69 °F

Past Weeks' High & Low Weather Summary

 TemperatureHumidityPressure
High81 °F (Aug 26, 2:00 PM)100% (Aug 16, 9:00 PM)30.22 "Hg (Aug 16, 9:00 PM)
Low45 °F (Aug 19, 4:59 AM)46% (Aug 15, 3:00 PM)29.69 "Hg (Aug 13, 1:00 AM)
Average63 °F85%29.96 "Hg
* Reported Aug 12 4:00 PM — Aug 27 4:00 PM, Clarington, Weather by CustomWeather, © 2014

Note: Actual official high and low records may vary slightly from our data, if they occured in-between our weather recording intervals... More about our weather records

Advertising

Clarington weather history for previous 24 hours

 ConditionsComfort  
Time TempWeatherWind HumidityBarometerVisibility
4:00 PM
Aug 27
70 °FPartly sunny.10 mph64%30.01 "Hg9 mi
3:00 PM68 °FOvercast.8 mph69%30.01 "Hg9 mi
2:00 PM72 °FBroken clouds.13 mph61%30.02 "Hg9 mi
1:00 PM73 °FSunny.9 mph57%30.02 "Hg9 mi
12:00 PM72 °FSunny.7 mph61%30.03 "Hg9 mi
8:00 AM63 °FSunny.5 mph83%30.04 "Hg9 mi
7:00 AM59 °FClear.6 mph88%30.03 "Hg9 mi
6:00 AM61 °FPassing clouds.7 mph83%30.02 "Hg9 mi
5:00 AM63 °FClear.10 mph83%30.01 "Hg9 mi
4:00 AM66 °FPassing clouds.6 mph83%30.00 "Hg9 mi
3:00 AM66 °FPassing clouds.5 mph83%30.00 "Hg9 mi
2:00 AM70 °FOvercast.9 mph83%30.00 "Hg9 mi
1:00 AM70 °FOvercast.5 mph88%29.99 "Hg9 mi
12:00 AM72 °FPassing clouds.10 mph83%29.98 "Hg9 mi
11:00 PM
Aug 26
73 °FPassing clouds.10 mph83%29.98 "Hg9 mi
10:00 PM75 °FPassing clouds.7 mph83%29.97 "Hg9 mi
9:00 PM73 °FPassing clouds.7 mph83%29.96 "Hg9 mi
8:00 PM75 °FBroken clouds.5 mph78%29.96 "Hg9 mi
7:00 PM79 °FPassing clouds.9 mph70%29.98 "Hg9 mi
6:00 PM81 °FPartly sunny.10 mph70%29.98 "Hg9 mi
5:00 PM81 °FPassing clouds.13 mph70%29.99 "Hg9 mi
Weather by CustomWeather, © 2014

See weather overviewHow to use our weather pages